Location: Clinton NY
(43.0598°N, 75.3602°W)
Time: 04:05:40
(UTC-04:00)

Iridium 11 - Visible Passes

Search period start: 24 March 2017 00:00
Search period end: 03 April 2017 00:00
Orbit: 776 x 779 km, 86.4° (Epoch: 22 March)

Date Brightness Start Highest point End Pass type
(mag) Time Alt. Az. Time Alt. Az. Time Alt. Az.
24 Mar 5.5 19:47:18 10° N 19:52:33 77° E 19:57:45 10° S visible
24 Mar 8.6 21:30:14 10° NW 21:32:31 13° WNW 21:34:49 10° WSW visible
25 Mar 8.0 20:55:18 10° NNW 20:59:21 23° W 21:03:24 10° SW visible
26 Mar 7.0 20:21:11 10° NNW 20:26:03 41° W 20:30:55 10° SSW visible
27 Mar 5.8 19:47:24 10° N 19:52:39 75° W 19:57:50 10° S visible
28 Mar 8.6 20:56:05 10° NW 20:59:15 17° WNW 21:02:26 10° WSW visible
29 Mar 7.8 20:21:35 10° NNW 20:26:02 29° W 20:30:29 10° SW visible
30 Mar 6.6 19:47:38 10° NNW 19:52:41 52° W 19:57:44 10° SSW visible
31 Mar 9.0 20:57:33 10° WNW 20:59:07 11° WNW 21:00:41 10° W visible
01 Apr 8.5 20:22:11 10° NNW 20:25:58 21° W 20:29:46 10° SW visible
02 Apr 9.3 06:01:39 10° E 06:03:25 12° ENE 06:05:11 10° NE visible
